This is the latest recevied weather packets stored in our database for station/object IN3XSV. If no packets are shown the sender has not sent any weather packets the latest 10 day(s).
| Time | Temp. | Humidity | Pressure | Rain* | Wind** | Luminosity | Snow |
|---|---|---|---|---|---|---|---|
| 1777195443 | 21.67° C | 43% | 1010.9 hPa | 0 mm | - | - | - |
| 1777195143 | 21.67° C | 43% | 1011 hPa | 0 mm | - | - | - |
| 1777194843 | 21.11° C | 45% | 1011 hPa | 0 mm | - | - | - |
| 1777194543 | 20.56° C | 46% | 1011 hPa | 0 mm | - | - | - |
| 1777194243 | 20° C | 46% | 1011 hPa | 0 mm | - | - | - |
| 1777193943 | 19.44° C | 44% | 1011.1 hPa | 0 mm | - | - | - |
| 1777193643 | 19.44° C | 48% | 1011.2 hPa | 0 mm | - | - | - |
| 1777193343 | 18.89° C | 50% | 1011.2 hPa | 0 mm | - | - | - |
| 1777193043 | 18.89° C | 51% | 1011.2 hPa | 0 mm | - | - | - |
| 1777192743 | 18.33° C | 53% | 1011.3 hPa | 0 mm | - | - | - |
| 1777192443 | 18.33° C | 52% | 1011.3 hPa | 0 mm | - | - | - |
| 1777192143 | 17.78° C | 56% | 1011.3 hPa | 0 mm | - | - | - |
| 1777191843 | 17.78° C | 59% | 1011.4 hPa | 0 mm | - | - | - |
| 1777191543 | 17.78° C | 61% | 1011.4 hPa | 0 mm | - | - | - |
| 1777191243 | 17.78° C | 64% | 1011.3 hPa | 0 mm | - | - | - |
| 1777190943 | 17.22° C | 67% | 1011.3 hPa | 0 mm | - | - | - |
| 1777190643 | 16.67° C | 67% | 1011.3 hPa | 0 mm | - | - | - |
| 1777190343 | 16.11° C | 67% | 1011.3 hPa | 0 mm | - | - | - |
| 1777190043 | 15.56° C | 68% | 1011.4 hPa | 0 mm | - | - | - |
| 1777189743 | 15.56° C | 68% | 1011.4 hPa | 0 mm | - | - | - |
| 1777189443 | 15° C | 69% | 1011.4 hPa | 0 mm | - | - | - |
| 1777189143 | 15° C | 70% | 1011.4 hPa | 0 mm | - | - | - |
| 1777188844 | 15° C | 71% | 1011.5 hPa | 0 mm | - | - | - |
| 1777188543 | 14.44° C | 71% | 1011.5 hPa | 0 mm | - | - | - |
| 1777188243 | 14.44° C | 71% | 1011.4 hPa | 0 mm | - | - | - |
* Rain latest hour (hover to see other rain measurements)
** Current wind speed in m/s (hover to see current wind gust speed)